Location: Niverville
(49.6028°N, 97.0419°W)
Time: 23:31:17
(UTC-05:00)

ISS - All Passes

Search period start: 02 September 2015 00:00
Search period end: 12 September 2015 00:00
Orbit: 400 x 403 km, 51.6° (Epoch: 01 September)

Date Brightness Start Highest point End Pass type
(mag) Time Alt. Az. Time Alt. Az. Time Alt. Az.
02 Sep - 08:48:31 10° SSE 08:50:05 13° SE 08:51:44 10° ESE daylight
02 Sep - 10:22:47 10° SW 10:26:00 59° SSE 10:29:13 10° ENE daylight
02 Sep - 11:59:13 10° W 12:02:27 60° N 12:05:41 10° ENE daylight
02 Sep - 13:35:47 10° WNW 13:39:03 77° NNE 13:42:19 10° E daylight
02 Sep - 15:12:22 10° W 15:15:18 31° SSW 15:18:12 10° SSE daylight
03 Sep - 09:29:45 10° SW 09:32:47 37° SSE 09:35:52 10° E daylight
03 Sep - 11:05:51 10° W 11:09:06 70° NNW 11:12:22 10° ENE daylight
03 Sep - 12:42:28 10° WNW 12:45:43 63° N 12:48:58 10° E daylight
03 Sep - 14:18:57 10° WNW 14:22:07 48° SSW 14:25:16 10° SE daylight
03 Sep - 15:57:26 10° SW 15:57:57 10° SW 15:58:22 10° SW daylight
04 Sep - 08:36:58 10° SSW 08:39:38 24° SE 08:42:21 10° E daylight
04 Sep - 10:12:31 10° WSW 10:15:47 89° NNW 10:19:04 10° ENE daylight
04 Sep - 11:49:08 10° WNW 11:52:22 57° N 11:55:36 10° E daylight
04 Sep - 13:25:37 10° WNW 13:28:53 74° SSW 13:32:08 10° ESE daylight
04 Sep - 15:02:38 10° W 15:04:54 17° SW 15:07:06 10° S daylight
05 Sep - 07:44:40 10° S 07:46:33 15° SE 07:48:30 10° ESE daylight
05 Sep - 09:19:17 10° WSW 09:22:31 65° SSE 09:25:46 10° ENE daylight
05 Sep - 10:55:46 10° W 10:59:00 59° N 11:02:14 10° ENE daylight
05 Sep - 12:32:19 10° WNW 12:35:36 81° NNE 12:38:52 10° ESE daylight
05 Sep - 14:08:57 10° W 14:11:48 27° SW 14:14:37 10° SSE daylight
06 Sep - 08:26:12 10° SW 08:29:18 42° SSE 08:32:25 10° ENE daylight
06 Sep - 10:02:24 10° W 10:05:39 66° N 10:08:55 10° ENE daylight
06 Sep - 11:39:01 10° WNW 11:42:16 65° N 11:45:31 10° E daylight
06 Sep - 13:15:30 10° WNW 13:18:38 43° SSW 13:21:44 10° SE daylight
07 Sep - 07:33:21 10° SSW 07:36:08 26° SE 07:38:58 10° E daylight
07 Sep - 09:09:03 10° WSW 09:12:20 83° NNW 09:15:37 10° ENE daylight
07 Sep - 10:45:41 10° WNW 10:48:55 58° N 10:52:09 10° E daylight
07 Sep - 12:22:09 10° WNW 12:25:24 67° SSW 12:28:39 10° ESE daylight
07 Sep - 13:59:21 10° W 14:01:23 15° SW 14:03:21 10° S daylight
08 Sep - 06:40:54 10° S 06:43:03 17° SE 06:45:14 10° E daylight
08 Sep - 08:15:48 10° WSW 08:19:03 71° SSE 08:22:19 10° ENE daylight
08 Sep - 09:52:19 10° W 09:55:34 58° N 09:58:48 10° ENE daylight
08 Sep - 11:28:51 10° WNW 11:32:08 87° NNE 11:35:24 10° ESE daylight
08 Sep - 13:05:34 10° W 13:08:18 25° SW 13:11:00 10° SSE daylight
09 Sep - 07:22:40 10° SW 07:25:49 47° SSE 07:28:59 10° ENE daylight
09 Sep - 08:58:57 10° W 09:02:12 64° N 09:05:28 10° ENE daylight
09 Sep - 10:35:33 10° WNW 10:38:49 68° N 10:42:05 10° E daylight
09 Sep - 12:12:04 10° W 12:15:09 39° SSW 12:18:12 10° SE daylight
10 Sep - 06:29:45 10° SSW 06:32:39 30° SSE 06:35:34 10° E daylight
10 Sep - 08:05:36 10° WSW 08:08:52 78° NNW 08:12:09 10° ENE daylight
10 Sep - 09:42:14 10° WNW 09:45:28 59° N 09:48:43 10° E daylight
10 Sep - 11:18:42 10° WNW 11:21:56 61° SSW 11:25:10 10° SE daylight
10 Sep - 12:56:07 10° WSW 12:57:52 14° SW 12:59:33 10° S daylight
11 Sep - 05:37:11 10° S 05:39:32 19° SE 05:41:56 10° E visible
11 Sep - 07:12:19 10° WSW 07:15:35 78° SSE 07:18:52 10° ENE daylight
11 Sep - 08:48:53 10° W 08:52:07 57° N 08:55:21 10° E daylight
11 Sep - 10:25:24 10° WNW 10:28:41 87° SSW 10:31:57 10° ESE daylight
11 Sep - 12:02:10 10° W 12:04:47 22° SW 12:07:23 10° SSE daylight
